Terminal Aerodrome Forecast
Issued by NWS

Home | Current Version | Previous Version | Text Only | Print | Product List | Glossary On
Versions: 1 2 3 4 5 6 7 8 9 10 11 12 13 14 15 16 17 18 19
000
FTUS43 KPAH 252327
TAFCGI
TAF
KCGI 252327Z 2600/2624 10007KT P6SM VCTS SCT030CB OVC050
     FM260300 12013KT 4SM TSRA BKN015CB OVC050
      TEMPO 2603/2607 VRB20G35KT 1SM +TSRA BR BKN008CB
     FM260900 35012G19KT 3SM -SHRA BR OVC015
     FM261600 36015KT 5SM -RA BKN035=

USA.gov is the U.S. government's official web portal to all federal, state and local government web resources and services.